Starlink 1972

operational
NORAD ID: 47627 Int'l Des: 2021-012 Owner: SPXS Country: US Constellation: starlink
LEOCIRCULARSTARLINK_TYPE

About Starlink 1972

Description loading...

Live Position

Loading 3D Globe...

Upcoming Passes

Altitude History

Altitude vs Time

uPlot chart will show altitude changes over time

Two-Line Element Set

1 47627U 21012H 25301.02311834 .00014510 00000-0 99057-3 0 9999
2 47627 53.0532 212.1810 0001286 95.2371 264.8765 15.06416334261296
Epoch: Oct 28, 2025 • Age: 31 hours

Current Status

Altitude 555.8 km
Velocity 7.58 km/s
Sub-Earth Point -27.94°S, 104.6°W
Launch Date Feb 16, 2021
Age 4.6 years
Type internet

Technical Details

Classification Payload
Mass 260.00 kg
Dry Mass 248.00 kg
Total Mass 260.00 kg
Length 0.20 m
Diameter 2.80 m
Span 9.00 m
Shape Box + pan
Manufacturer SPXS
Bus Type Starlink
Phase Status In Orbit
Owner/State SPXS/US

Large Constellations

Loading constellations...